Terminal Aerodrome Forecast
Issued by NWS Raleigh/Durham, NC

Home | Current Version | Previous Version | Text Only | Print | Product List | Glossary On
Versions: 1 2 3 4 5 6 7 8 9 10 11 12 13 14 15 16 17 18 19 20 21 22 23 24 25 26 27 28 29 30 31 32 33 34 35 36 37 38 39 40 41 42 43 44 45 46 47 48 49 50
000
FTUS42 KRAH 221136
TAFRDU
TAF
KRDU 221136Z 2212/2312 22008KT P6SM FEW250
     FM221500 22012G18KT P6SM SCT250
     FM221800 22013G23KT P6SM SCT050 BKN250
      TEMPO 2219/2223 VRB15G30KT 2SM TSRA BKN030CB
     FM230000 22007KT P6SM FEW050 BKN120
      TEMPO 2306/2309 5SM -SHRA OVC050=

USA.gov is the U.S. government's official web portal to all federal, state and local government web resources and services.